Вернуться в каталог

FENGYUN 1C DEB

АктивенSSO
NORAD 30810·DEBRIS·🇨🇳 China

Запущен May 10, 1999 с Taiyuan Satellite Launch Center

Loading…

Ближайшие Пролёты (ближайшие 24 часа)

TLE

СвежийSource: Space-Track

Эпоха: Sep 14, 2026, 03:58 UTC

1 30810U 99025AUU 26257.16558015  .00003736  00000-0  19428-2 0  9995
2 30810  98.6787  62.5824 0172830 357.7940   2.2449 14.07854055982540

Отслеживайте FENGYUN 1C DEB в реальном времени с AllMySat

Download on the App Store